STARLINK-11600, 63114

Orbit data source: Space-Track

STARLINK-11600, 63114 is a payload satellite owned by SpaceX/Seattle (US) in LEO that was launched on Thu, 27 Feb 2025 UTC via an FALCON 9 launch vehicle from the Air Force Eastern Test Range (AFETR). Payload-class satellites include a variety of spacecraft equipped with specific instruments for various scientific and technological missions. These include communications satellites like Starlink; space stations such as the ISS; scientific satellites like the Hubble; Earth observation satellites from companies like Planet Labs, Umbra, and HawkEye 360; GPS; miniature CubeSats for education and research; and military/defense satellites.

Loading next visibility...
Identifier
63114, 2025-039L
Orbit
LEO
Country
Flag of USUS
Related business
Manufacturer
SpaceX/Seattle
Mission
Operational Commercial Communications
Bus & Motor
STARLINK V2MD, Unknown motor
Mass
960 kg wet, ~910 kg dry
Launch date (UTC)
2025-02-27 (7 months ago)
Launch vehicle
FALCON 9
Launch site
Air Force Eastern Test Range (AFETR)
Object type
Payload
Rocket body
Debris
Shape & HBR
Box + 2 Pan, 14.5 m
Radar Cross Section
36.964 m², Large (>1 m²)

Expand to show TLE details & history
Last TLE update: 18 hours ago

TLE from 18 hours ago
0 STARLINK-11600
1 63114U 25039L   25260.21201861  .00346998  00000-0  25892-2 0  9997
2 63114  42.9983 202.3555 0001788  10.7682 349.3223 15.70906454 32330
Epoch: 2025-09-17T05:05Z
TLE epoch observation values (Epoch: 2025-09-17T05:05:18.407Z)
Latitude
-0.00008°
Longitude
129.63751°
Altitude
354.893 km
Speed
7.699 km/s
True Right ascension
13h 29m 25s
True Declination
0° 00' 00"
Sunlit
Object was in daylight at epoch
Visualization orbit readout
Latitude
Unknown
Longitude
Unknown
Altitude
Unknown
Speed
Unknown
Apparent Right ascension
Unknown
Apparent Declination
Unknown
Sunlit
N/A
Visualization observer readout
Local Sidereal Time
15:27:49
Azimuth
Unknown
Elevation
Unknown
Doppler factor
Unknown
Orbital elements
Apogee altitude
359.492 km
Perigee altitude
357.083 km
Semi-major axis
6,736.424 km
Eccentricity
0.00018
Inclination
42.9983°
RAAN
202.3555°
Arg. of periapsis
10.7682°
True anomaly
349.3185°
Mean anomaly
349.3223°
Eccentric anomaly
349.3204°
Mean motion
3.92554 °/min
Orbital period
91.71 mins
BSTAR
0.0025892
Loading maneuver chart data...
Computing Atmospheric mass density...
Loading historical data...
Loading historical data...
Loading historical data...
Loading historical data...
Loading historical data...
Loading historical data...
Loading historical data...

Documentation

Showing up to 5 results
|